Location: Almena City Lake
(39.8850°N, 99.6804°W)
Time: 08:30:05
(UTC+00:00)

STARLINK-1110 - Pass Details

Date: 18 February 2020
Orbit: 549 x 550 km, 53.0° (Epoch: 04 April)

Event Time Altitude Azimuth Distance (km) Brightness Sun altitude
Exits shadow 10:23:00 13° 64° (ENE) 1,633 6.7 -35.9°
Drops below altitude 10° 10:23:31 10° 62° (ENE) 1,830 7.0 -35.9°
Enters shadow 11:24:20 -62° 234° (SW) 11,841 10.4 -24.4°
